GW5945 Weather Reports


time (UTC)temp
F
wind
direction
speed
knots
gust
knots
rain 1hr
in
rain 24hr
in
rain mn
in
humidity
%
barometer
mb
20260508115317 32 102 0.0 0.0 0.00 0.00 0.00 91 1021.8
20260508114819 33 117 0.0 0.0 0.00 0.00 0.00 91 1021.7
20260508114329 33 117 0.0 0.0 0.00 0.00 0.00 91 1021.7
20260508113811 33 117 0.0 0.0 0.00 0.00 0.00 90 1021.6
20260508113314 33 117 0.0 0.0 0.00 0.00 0.00 89 1021.6
20260508112823 33 117 0.0 0.0 0.00 0.00 0.00 89 1021.6
20260508112326 34 117 0.0 0.0 0.00 0.00 0.00 89 1021.6
20260508111827 34 117 0.0 0.0 0.00 0.00 0.00 88 1021.6
20260508111317 34 117 0.0 0.0 0.00 0.00 0.00 89 1021.5
20260508110818 34 301 0.0 0.0 0.00 0.00 0.00 91 1021.5
20260508110320 34 300 0.0 1.7 0.00 0.00 0.00 90 1021.6
20260508105828 34 300 0.0 2.6 0.00 0.00 0.00 89 1021.5
20260508105330 34 316 0.9 2.6 0.00 0.00 0.00 90 1021.4
20260508104832 33 302 0.9 3.5 0.00 0.00 0.00 92 1021.3
20260508104343 33 359 1.7 3.5 0.00 0.00 0.00 93 1021.3
20260508103824 33 333 1.7 2.6 0.00 0.00 0.00 93 1021.2
20260508103325 33 27 1.7 2.6 0.00 0.00 0.00 93 1021.2
20260508102815 32 43 0.0 1.7 0.00 0.00 0.00 93 1021.2
20260508102316 32 43 0.9 2.6 0.00 0.00 0.00 93 1021.2
20260508101819 33 245 0.9 3.5 0.00 0.00 0.00 93 1021.3
20260508101326 32 52 0.9 3.5 0.00 0.00 0.00 93 1021.2
20260508100827 33 12 1.7 3.5 0.00 0.00 0.00 93 1021.2
20260508100324 33 336 0.9 1.7 0.00 0.00 0.00 92 1021.2
20260508095814 33 54 0.9 1.7 0.00 0.00 0.00 93 1021.0
20260508095315 33 62 0.0 1.7 0.00 0.00 0.00 93 1021.0
20260508094818 33 321 0.9 3.5 0.00 0.00 0.00 93 1021.0
20260508094326 34 336 0.9 3.5 0.00 0.00 0.00 93 1020.9
20260508093826 34 51 0.0 3.5 0.00 0.00 0.00 93 1020.9
20260508093329 33 70 1.7 3.5 0.00 0.00 0.00 92 1021.0
20260508092820 33 304 0.0 1.7 0.00 0.00 0.00 92 1021.2
20260508092321 33 151 0.0 1.7 0.00 0.00 0.00 92 1021.1
20260508091821 33 54 0.0 2.6 0.00 0.00 0.00 92 1021.1
20260508091312 33 53 0.0 1.7 0.00 0.00 0.00 91 1020.9
20260508090811 34 333 0.9 1.7 0.00 0.00 0.00 92 1020.9
20260508090332 33 50 0.0 2.6 0.00 0.00 0.00 91 1020.9
20260508085823 33 49 1.7 2.6 0.00 0.00 0.00 91 1021.1
20260508085325 34 240 1.7 2.6 0.00 0.00 0.00 91 1021.3
20260508084825 34 73 0.9 1.7 0.00 0.00 0.00 90 1021.1
20260508084316 34 41 0.9 2.6 0.00 0.00 0.00 90 1021.3
20260508083818 35 229 1.7 2.6 0.00 0.00 0.00 89 1021.4
20260508083319 35 89 0.0 0.0 0.00 0.00 0.00 88 1021.2
20260508082827 36 89 0.0 0.0 0.00 0.00 0.00 88 1021.3
20260508082330 36 89 0.0 0.0 0.00 0.00 0.00 88 1021.5
20260508081847 36 89 0.0 0.9 0.00 0.00 0.00 88 1021.6
20260508081317 36 89 0.9 1.7 0.00 0.00 0.00 87 1021.6
20260508080819 37 89 0.9 2.6 0.00 0.00 0.00 86 1021.7
20260508080340 37 158 0.9 3.5 0.00 0.00 0.00 88 1021.5
20260508075824 37 32 1.7 3.5 0.00 0.00 0.00 88 1021.6
20260508075326 37 279 0.0 3.5 0.00 0.00 0.00 87 1021.4
20260508074827 37 74 0.0 1.7 0.00 0.00 0.00 87 1021.5
20260508074315 37 18 0.0 2.6 0.00 0.00 0.00 87 1021.8
20260508073819 37 34 1.7 3.5 0.00 0.00 0.00 86 1022.0
20260508073319 37 274 0.9 2.6 0.00 0.00 0.00 87 1022.4
20260508072830 36 82 0.9 2.6 0.00 0.00 0.00 89 1022.3
20260508072312 36 282 0.0 2.6 0.00 0.00 0.00 89 1022.2
20260508071814 36 271 0.0 2.6 0.00 0.00 0.00 89 1021.9
20260508071323 36 316 0.0 2.6 0.00 0.00 0.00 89 1021.8
20260508070825 36 285 1.7 2.6 0.00 0.00 0.00 89 1021.7
20260508070325 36 89 0.0 1.7 0.00 0.00 0.00 88 1021.6
20260508065815 36 73 0.0 2.6 0.00 0.00 0.00 89 1021.7
20260508065317 36 20 1.7 2.6 0.00 0.00 0.00 90 1021.7
20260508064818 36 354 1.7 2.6 0.00 0.00 0.00 89 1021.7
20260508064325 36 320 0.9 2.6 0.00 0.00 0.00 89 1021.8
20260508063826 36 79 0.0 0.0 0.00 0.00 0.00 88 1021.8
20260508063328 37 79 0.0 0.0 0.00 0.00 0.00 88 1021.8
20260508062819 37 44 0.0 0.0 0.00 0.00 0.00 89 1021.9
20260508062321 37 41 0.0 0.0 0.00 0.00 0.00 90 1021.8
20260508061823 36 19 0.0 1.7 0.00 0.00 0.00 89 1021.8
20260508061312 37 19 0.0 2.6 0.00 0.00 0.00 89 1021.8
20260508060834 37 354 0.9 1.7 0.00 0.00 0.00 88 1021.8
20260508060334 37 354 0.9 1.7 0.00 0.00 0.00 88 1021.8
20260508055816 38 345 0.0 0.0 0.00 0.00 0.00 87 1021.9
20260508055317 38 39 0.0 0.0 0.00 0.00 0.00 87 1021.8
20260508054818 39 357 0.0 0.0 0.00 0.00 0.00 86 1022.0
20260508054331 39 101 0.0 0.9 0.00 0.00 0.00 86 1022.1
20260508053813 40 252 0.0 2.6 0.00 0.00 0.00 85 1022.1
20260508053334 40 219 0.9 2.6 0.00 0.00 0.00 84 1022.1
20260508052826 41 41 0.9 3.5 0.00 0.00 0.00 83 1022.3
20260508052328 41 346 0.0 6.1 0.00 0.00 0.00 82 1022.6
20260508051830 42 284 2.6 6.1 0.00 0.00 0.00 79 1022.7
20260508051341 41 308 0.9 1.7 0.00 0.00 0.00 78 1022.7
20260508050841 41 346 0.0 2.6 0.00 0.00 0.00 76 1022.3
20260508050321 40 9 0.0 2.6 0.00 0.00 0.00 76 1021.9
20260508045812 41 349 0.0 0.9 0.00 0.00 0.00 75 1021.7
20260508045314 41 349 0.0 1.7 0.00 0.00 0.00 74 1021.7
20260508044831 42 325 0.9 1.7 0.00 0.00 0.00 72 1021.6
20260508044319 42 39 0.0 2.6 0.00 0.00 0.00 72 1021.7
20260508043842 42 37 0.0 2.6 0.00 0.00 0.00 73 1021.7
20260508043321 42 57 1.7 2.6 0.00 0.00 0.00 73 1021.5
20260508042812 42 193 0.0 1.7 0.00 0.00 0.00 72 1021.6
20260508042314 43 242 0.0 1.7 0.00 0.00 0.00 71 1021.5
20260508041815 43 81 0.0 0.9 0.00 0.00 0.00 69 1021.4
20260508041323 43 25 0.0 1.7 0.00 0.00 0.00 70 1021.5
20260508040825 44 17 0.9 2.6 0.00 0.00 0.00 69 1021.6
20260508040348 44 70 0.0 2.6 0.00 0.00 0.00 69 1021.8
20260508035817 44 63 1.7 2.6 0.00 0.00 0.00 69 1021.9
20260508035339 43 41 0.9 4.3 0.00 0.00 0.00 69 1022.0
20260508034821 43 8 0.9 4.3 0.00 0.00 0.00 69 1022.1
20260508034330 43 354 1.7 2.6 0.00 0.00 0.00 69 1022.0
20260508033811 43 136 0.9 1.7 0.00 0.00 0.00 68 1021.6
20260508033314 44 141 0.9 3.5 0.00 0.00 0.00 66 1021.4
20260508032830 44 148 0.9 3.5 0.00 0.00 0.00 66 1021.5
20260508032333 44 306 0.9 1.7 0.00 0.00 0.00 67 1021.4
20260508031832 44 124 0.0 3.5 0.00 0.00 0.00 66 1021.4
20260508031322 45 104 0.9 3.5 0.00 0.00 0.00 66 1021.4
20260508030823 45 156 1.7 4.3 0.00 0.00 0.00 64 1021.3
20260508030326 45 235 0.0 4.3 0.00 0.00 0.00 64 1021.4
20260508025816 44 32 1.7 3.5 0.00 0.00 0.00 67 1021.3
20260508025317 44 133 0.0 2.6 0.00 0.00 0.00 68 1021.4
20260508024818 45 153 0.9 5.2 0.00 0.00 0.00 67 1021.2
20260508024329 45 159 1.7 7.0 0.00 0.00 0.00 66 1021.3
20260508023811 45 214 0.9 7.8 0.00 0.00 0.00 65 1021.3
20260508023334 45 291 4.3 7.8 0.00 0.00 0.00 65 1021.2
20260508022823 44 193 3.5 7.0 0.00 0.00 0.00 68 1021.4
20260508022325 44 153 3.5 6.1 0.00 0.00 0.00 69 1021.3
20260508021826 45 184 1.7 5.2 0.00 0.00 0.00 68 1021.4
20260508021314 45 172 0.9 7.8 0.00 0.00 0.00 66 1021.5
20260508020835 46 172 1.7 7.8 0.00 0.00 0.00 64 1021.5
20260508020337 47 235 2.6 7.0 0.00 0.00 0.00 62 1021.5
20260508015826 48 270 1.7 10.4 0.00 0.00 0.00 58 1021.3
20260508015328 48 186 3.5 10.4 0.00 0.00 0.00 56 1021.6
20260508014829 49 149 4.3 13.0 0.00 0.00 0.00 53 1021.4
20260508014320 49 191 5.2 13.0 0.00 0.00 0.00 51 1021.4
20260508013821 50 143 2.6 7.0 0.00 0.00 0.00 50 1021.1
20260508013343 50 141 3.5 6.1 0.00 0.00 0.00 48 1021.0
20260508012812 51 136 3.5 6.1 0.00 0.00 0.00 48 1020.8
20260508012314 51 158 0.9 4.3 0.00 0.00 0.00 46 1020.7
20260508011817 52 156 1.7 6.1 0.00 0.00 0.00 45 1020.6
20260508011324 52 291 1.7 8.7 0.00 0.00 0.00 45 1020.8
20260508010812 52 184 1.7 7.8 0.00 0.00 0.00 44 1020.8
20260508010329 53 215 2.6 6.1 0.00 0.00 0.00 42 1020.7
20260508005840 53 267 2.6 7.0 0.00 0.00 0.00 42 1020.7
20260508005321 53 306 1.7 7.0 0.00 0.00 0.00 42 1020.6
20260508004823 53 284 2.6 9.6 0.00 0.00 0.00 42 1020.6
20260508004313 54 225 1.7 4.3 0.00 0.00 0.00 41 1020.5
20260508003836 55 280 0.0 0.0 0.00 0.00 0.00 41 1020.3
20260508003316 54 1 0.0 0.9 0.00 0.00 0.00 37 1020.1
20260508002844 55 124 0.0 1.7 0.00 0.00 0.00 38 1020.0
20260508002325 55 124 0.9 1.7 0.00 0.00 0.00 36 1019.8
20260508001826 55 148 0.0 2.6 0.00 0.00 0.00 38 1019.8
20260508001316 55 148 0.0 3.5 0.00 0.00 0.00 36 1019.7
20260508000838 56 219 2.6 6.1 0.00 0.00 0.00 37 1019.8
20260508000320 57 285 0.9 5.2 0.00 0.00 0.00 34 1019.7
20260507235848 57 307 0.9 5.2 0.00 0.00 0.00 35 1019.8
20260507235310 58 300 1.7 2.6 0.00 0.00 0.00 33 1019.9
20260507234833 58 23 0.9 6.1 0.00 0.00 0.00 33 1019.7
20260507234342 57 319 1.7 7.8 0.00 0.00 0.00 35 1019.8
20260507233822 57 270 2.6 8.7 0.00 0.00 0.00 35 1019.8
20260507233323 57 245 5.2 8.7 0.00 0.00 0.00 34 1020.1
20260507232813 57 259 3.5 9.6 0.00 0.00 0.00 36 1020.1
20260507232316 55 264 1.7 6.1 0.00 0.00 0.00 37 1019.9
20260507231819 53 127 1.7 5.2 0.00 0.00 0.00 44 1019.7
20260507231326 51 122 4.3 5.2 0.00 0.00 0.00 45 1019.8
20260507230848 50 45 0.9 2.6 0.00 0.00 0.00 47 1019.9
20260507230328 51 277 0.0 0.0 0.00 0.00 0.00 47 1020.0
20260507225820 51 243 0.0 0.0 0.00 0.00 0.00 48 1020.0
20260507225321 51 59 0.0 0.0 0.00 0.00 0.00 47 1019.9
20260507224822 52 60 0.0 0.0 0.00 0.00 0.00 44 1019.9
20260507224311 52 50 0.0 0.0 0.00 0.00 0.00 44 1020.0
20260507223813 52 49 0.0 0.0 0.00 0.00 0.00 43 1020.0
20260507223335 52 50 0.0 0.0 0.00 0.00 0.00 42 1019.9
20260507222823 52 50 0.0 0.0 0.00 0.00 0.00 43 1020.0
20260507222324 52 50 0.0 0.0 0.00 0.00 0.00 40 1020.0
20260507221826 52 47 0.0 0.0 0.00 0.00 0.00 40 1020.0
20260507221350 52 41 0.0 1.7 0.00 0.00 0.00 41 1020.1
20260507220830 52 323 0.9 3.5 0.00 0.00 0.00 38 1020.2
20260507220352 53 345 1.7 3.5 0.00 0.00 0.00 38 1020.3
20260507215821 53 27 0.9 4.3 0.00 0.00 0.00 39 1020.2
20260507215324 53 332 3.5 4.3 0.00 0.00 0.00 39 1020.4
20260507214825 53 113 4.3 4.3 0.00 0.00 0.00 38 1020.4
20260507214314 54 153 0.9 4.3 0.00 0.00 0.00 38 1020.6
20260507213837 53 122 2.6 4.3 0.00 0.00 0.00 40 1020.7
20260507213316 52 95 0.0 0.0 0.00 0.00 0.00 42 1020.7
20260507212823 51 94 0.0 0.9 0.00 0.00 0.00 45 1020.9
20260507212327 51 101 0.0 6.1 0.00 0.00 0.00 45 1020.8
20260507211828 51 101 0.9 6.1 0.00 0.00 0.00 41 1020.9
20260507211316 51 122 0.9 6.1 0.00 0.00 0.00 41 1021.0
20260507210817 50 139 0.0 0.0 0.00 0.00 0.00 47 1021.1
20260507210319 51 139 0.0 0.9 0.00 0.00 0.00 44 1021.1
20260507205824 51 138 0.0 0.9 0.00 0.00 0.00 40 1021.2
20260507205346 51 215 0.0 2.6 0.00 0.00 0.00 43 1021.3
20260507204826 50 153 0.0 0.9 0.00 0.00 0.00 46 1021.3
20260507204317 51 102 0.9 1.7 0.00 0.00 0.00 46 1021.3
20260507203837 51 104 0.9 1.7 0.00 0.00 0.00 41 1021.5
20260507203319 51 5 0.0 2.6 0.00 0.00 0.00 41 1021.5
20260507202828 51 239 0.9 3.5 0.00 0.00 0.00 43 1021.6
20260507202311 51 331 0.9 3.5 0.00 0.00 0.00 44 1021.6
20260507201832 51 226 1.7 3.5 0.00 0.00 0.00 43 1021.6
20260507201342 51 125 1.7 3.5 0.00 0.00 0.00 42 1021.7
20260507200840 51 141 0.9 4.3 0.00 0.00 0.00 42 1021.8
20260507200321 51 256 1.7 5.2 0.00 0.00 0.00 42 1021.7
20260507195812 51 249 2.6 6.1 0.00 0.00 0.00 42 1021.8
20260507195335 51 358 1.7 3.5 0.00 0.00 0.00 42 1021.8
20260507194836 51 212 2.6 3.5 0.00 0.00 0.00 43 1021.7
20260507194326 51 126 0.0 2.6 0.00 0.00 0.00 43 1021.8
20260507193826 51 130 0.0 2.6 0.00 0.00 0.00 44 1021.8
20260507193341 51 278 0.9 5.2 0.00 0.00 0.00 45 1021.7
20260507192826 51 335 1.7 3.5 0.00 0.00 0.00 44 1021.8
20260507192329 51 122 0.0 2.6 0.00 0.00 0.00 43 1022.0
20260507191823 51 122 0.9 2.6 0.00 0.00 0.00 43 1022.0
20260507191329 51 277 0.0 2.6 0.00 0.00 0.00 42 1022.0
20260507190339 50 352 1.7 9.6 0.00 0.00 0.00 43 1022.2
20260507185824 50 199 4.3 9.6 0.00 0.00 0.00 42 1022.3
20260507185327 50 236 0.9 4.3 0.00 0.00 0.00 43 1022.4
20260507184826 50 349 2.6 7.0 0.00 0.00 0.00 42 1022.4
20260507184316 50 77 0.9 7.0 0.00 0.00 0.00 42 1022.5
20260507183819 51 293 0.9 7.8 0.00 0.00 0.00 42 1022.5
20260507183338 52 34 2.6 7.8 0.00 0.00 0.00 40 1022.5
20260507182824 52 74 2.6 6.1 0.00 0.00 0.00 39 1022.6
20260507182324 50 304 1.7 7.0 0.00 0.00 0.00 43 1022.5
20260507181822 49 21 3.5 6.1 0.00 0.00 0.00 44 1022.6
20260507181313 48 46 1.7 6.1 0.00 0.00 0.00 45 1022.6
20260507180833 48 35 1.7 6.1 0.00 0.00 0.00 46 1022.6
20260507175844 46 347 0.0 2.6 0.00 0.00 0.00 49 1022.7
20260507175324 46 229 0.9 5.2 0.00 0.00 0.00 51 1022.6
20260507174828 46 75 1.7 5.2 0.00 0.00 0.00 50 1022.6
20260507174316 47 117 0.0 1.7 0.00 0.00 0.00 50 1022.4
20260507173819 47 72 0.9 2.6 0.00 0.00 0.00 49 1022.4
20260507173320 47 86 0.9 7.0 0.00 0.00 0.00 49 1022.3
20260507172824 47 166 1.7 7.0 0.00 0.00 0.00 48 1022.3
20260507172325 47 170 0.9 5.2 0.00 0.00 0.00 50 1022.3
20260507171848 46 181 2.6 4.3 0.00 0.00 0.00 50 1022.4
20260507171315 46 115 0.0 3.5 0.00 0.00 0.00 51 1022.5
20260507170818 47 253 0.9 2.6 0.00 0.00 0.00 49 1022.4
20260507170317 46 250 0.0 2.6 0.00 0.00 0.00 52 1022.4
20260507165827 46 148 0.0 4.3 0.00 0.00 0.00 52 1022.6
20260507165328 46 119 1.7 7.0 0.00 0.00 0.00 51 1022.7
20260507164828 46 142 2.6 7.0 0.00 0.00 0.00 52 1022.6
20260507164337 45 139 0.0 0.0 0.00 0.00 0.00 55 1022.8
20260507163818 45 139 0.0 2.6 0.00 0.00 0.00 55 1022.8
20260507163319 45 128 1.7 2.6 0.00 0.00 0.00 53 1022.7
20260507162826 45 153 0.9 4.3 0.00 0.00 0.00 53 1022.8
20260507162327 45 126 2.6 4.3 0.00 0.00 0.00 48 1022.7
20260507161830 44 139 0.0 7.0 0.00 0.00 0.00 51 1022.9
20260507161317 44 115 3.5 5.2 0.00 0.00 0.00 50 1023.2
20260507160819 44 276 0.0 1.7 0.00 0.00 0.00 52 1023.4
20260507160321 44 278 0.9 5.2 0.00 0.00 0.00 51 1023.4
20260507155829 43 5 1.7 5.2 0.00 0.00 0.00 51 1023.5
20260507155311 43 278 1.7 12.2 0.00 0.00 0.00 51 1023.6
20260507154813 43 257 3.5 12.2 0.00 0.00 0.00 51 1023.8
20260507154327 42 211 2.6 13.9 0.00 0.00 0.00 52 1023.7
20260507153830 42 246 5.2 9.6 0.00 0.00 0.00 52 1023.5
20260507153312 42 153 1.7 11.3 0.00 0.00 0.00 52 1023.4
20260507152849 42 301 6.1 14.8 0.00 0.00 0.00 51 1023.3
20260507152341 42 306 5.2 14.8 0.00 0.00 0.00 52 1023.3
20260507151820 42 308 6.1 18.2 0.00 0.00 0.00 54 1023.0
20260507151325 42 217 8.7 20.9 0.00 0.00 0.00 53 1023.0
20260507150827 42 301 8.7 20.9 0.00 0.00 0.00 53 1022.8
20260507150327 42 224 7.8 15.6 0.00 0.00 0.00 53 1022.9
20260507145816 42 239 4.3 12.2 0.00 0.00 0.00 52 1023.2
20260507145319 43 123 7.0 12.2 0.00 0.00 0.00 52 1023.3
20260507144821 43 233 4.3 9.6 0.00 0.00 0.00 51 1023.3
20260507144312 44 278 2.6 10.4 0.00 0.00 0.00 52 1023.2
20260507143813 44 278 4.3 12.2 0.00 0.00 0.00 51 1023.1
20260507143314 43 214 1.7 12.2 0.00 0.00 0.00 52 1022.9
20260507142845 43 239 3.5 10.4 0.00 0.00 0.00 52 1022.9
20260507142326 43 304 3.5 11.3 0.00 0.00 0.00 51 1022.9
20260507141827 43 287 6.1 12.2 0.00 0.00 0.00 50 1022.8
20260507141317 43 312 4.3 13.0 0.00 0.00 0.00 52 1023.0
20260507140820 43 308 6.1 13.0 0.00 0.00 0.00 52 1023.0
20260507140340 43 246 4.3 12.2 0.00 0.00 0.00 53 1023.1
20260507135828 43 257 5.2 10.4 0.00 0.00 0.00 52 1023.3
20260507135329 43 255 5.2 12.2 0.00 0.00 0.00 52 1023.1
20260507134829 43 169 3.5 13.9 0.00 0.00 0.00 53 1023.0
20260507134320 43 271 5.2 13.9 0.00 0.00 0.00 52 1023.0
20260507133821 43 278 4.3 14.8 0.00 0.00 0.00 53 1022.9
20260507133320 42 117 6.1 11.3 0.00 0.00 0.00 54 1022.9
20260507132848 41 249 5.2 11.3 0.00 0.00 0.00 55 1022.9
20260507132349 40 229 4.3 12.2 0.00 0.00 0.00 56 1022.9
20260507131829 39 13 4.3 11.3 0.00 0.00 0.00 57 1023.0
20260507131319 39 290 3.5 11.3 0.00 0.00 0.00 58 1023.0
20260507130840 38 120 3.5 11.3 0.00 0.00 0.00 58 1022.8
20260507130335 38 329 6.1 11.3 0.00 0.00 0.00 58 1022.8
20260507125826 38 44 3.5 7.0 0.00 0.00 0.00 59 1022.7
20260507125327 37 152 3.5 8.7 0.00 0.00 0.00 58 1022.6
20260507124828 38 254 3.5 8.7 0.00 0.00 0.00 57 1022.6
20260507124316 38 207 4.3 14.8 0.00 0.00 0.00 57 1022.6
20260507123838 38 249 7.0 14.8 0.00 0.00 0.00 58 1022.4
20260507123338 37 236 7.0 13.9 0.00 0.00 0.00 58 1022.3
20260507122826 37 226 3.5 13.9 0.00 0.00 0.00 59 1022.4
20260507122326 36 259 5.2 13.9 0.00 0.00 0.00 61 1022.3
20260507121828 35 287 7.0 13.9 0.00 0.00 0.00 61 1022.3
20260507121318 35 281 0.9 7.8 0.00 0.00 0.00 64 1022.2
20260507120819 35 219 3.5 6.1 0.00 0.00 0.00 63 1022.4
20260507120332 34 174 0.9 5.2 0.00 0.00 0.00 63 1022.6
20260507115819 33 178 1.7 3.5 0.00 0.00 0.00 66 1022.6